EW1736 Weather Reports


Display with metric or nautical units.
time (UTC)temp
F
wind
direction
speed
MPH
gust
MPH
rain 1hr
in
rain 24hr
in
rain mn
in
humidity
%
barometer
mb
20260831032922 60 246 18.0 30.0 0.00 0.06 0.06 69 1006.3
20260831031422 60 243 22.0 29.0 0.00 0.06 0.06 71 1006.4
20260831025919 59 252 17.0 31.0 0.01 0.06 0.06 72 1006.5
20260831024418 58 241 14.0 30.0 0.01 0.06 0.06 76 1006.7
20260831022915 60 234 23.0 35.0 0.01 0.06 0.06 69 1006.6
20260831021416 59 227 19.0 27.0 0.04 0.06 0.06 75 1006.8
20260831015910 61 236 22.0 35.0 0.03 0.05 0.05 69 1006.6
20260831014405 60 248 27.0 43.0 0.03 0.05 0.05 72 1006.7
20260831012906 59 242 16.0 27.0 0.04 0.05 0.05 75 1006.8
20260831012829 60 231 24.0 34.0 0.01 0.02 0.02 71 1007.0
20260831005857 60 0 25.0 39.0 0.01 0.02 0.02 73 1007.2
20260831004359 60 238 22.0 34.0 0.01 0.02 0.02 72 1007.3
20260831002854 61 219 20.0 39.0 0.00 0.01 0.01 71 1007.0
20260831001354 60 243 22.0 35.0 0.00 0.01 0.01 71 1007.2
20260830235850 60 275 25.0 34.0 0.00 0.01 0.01 68 1007.4
20260830234352 61 264 26.0 35.0 0.00 0.01 0.01 67 1007.6
20260830232850 60 265 26.0 35.0 0.00 0.01 0.01 68 1007.9
20260830231346 60 245 19.0 31.0 0.00 0.01 0.01 67 1008.0
20260830225846 60 263 23.0 35.0 0.00 0.01 0.01 67 1008.0
20260830224342 60 253 21.0 29.0 0.00 0.01 0.01 68 1008.0
20260830222843 60 233 21.0 27.0 0.00 0.01 0.01 67 1007.9
20260830221338 59 0 17.0 24.0 0.00 0.01 0.01 70 1008.3
20260830220532 59 227 19.0 31.0 0.00 0.01 0.01 70 1008.2
20260830214334 58 236 16.0 26.0 0.00 0.01 0.01 75 1008.4
20260830212829 57 263 20.0 32.0 0.00 0.01 0.01 74 1008.2
20260830211331 58 254 21.0 32.0 0.00 0.01 0.01 73 1008.3
20260830210528 58 271 19.0 31.0 0.00 0.01 0.01 71 1008.4
20260830204322 57 236 22.0 32.0 0.00 0.01 0.01 71 1008.3
20260830203515 57 0 17.0 28.0 0.00 0.01 0.01 72 1008.4
20260830201318 57 261 18.0 30.0 0.00 0.01 0.01 73 1008.3
20260830195818 56 300 19.0 26.0 0.00 0.01 0.01 72 1008.4
20260830194314 56 254 18.0 26.0 0.00 0.01 0.01 72 1008.3
20260830193514 56 240 16.0 23.0 0.00 0.01 0.01 71 1008.3
20260830191310 56 246 14.0 20.0 0.00 0.01 0.01 71 1008.2
20260830185810 56 244 15.0 24.0 0.00 0.01 0.01 72 1008.0
20260830184307 55 252 19.0 27.0 0.00 0.01 0.01 73 1007.7
20260830184149 55 245 17.0 21.0 0.00 0.01 0.01 76 1007.6
20260830181303 55 244 15.0 22.0 0.00 0.01 0.01 76 1007.6
20260830175758 56 261 19.0 23.0 0.00 0.01 0.01 73 1007.3
20260830174259 56 232 18.0 25.0 0.00 0.01 0.01 72 1006.9
20260830172754 56 241 19.0 27.0 0.00 0.01 0.01 71 1007.0
20260830171250 56 239 18.0 31.0 0.00 0.01 0.01 71 1006.8
20260830165750 56 222 23.0 35.0 0.00 0.01 0.01 72 1006.8
20260830164246 56 267 21.0 28.0 0.00 0.01 0.01 74 1006.3
20260830162741 56 250 20.0 24.0 0.00 0.01 0.01 73 1006.4
20260830161934 56 259 19.0 28.0 0.01 0.01 0.01 73 1006.4
20260830155732 56 240 21.0 33.0 0.01 0.01 0.01 75 1006.0
20260830154233 55 252 19.0 28.0 0.01 0.01 0.01 78 1006.1
20260830152729 55 257 15.0 22.0 0.01 0.01 0.01 79 1006.2
20260830151225 56 243 19.0 27.0 0.00 0.00 0.00 75 1006.3
20260830145725 56 269 25.0 34.0 0.00 0.00 0.00 75 1005.9
20260830144221 55 241 24.0 34.0 0.00 0.00 0.00 79 1005.7
20260830143410 55 252 26.0 34.0 0.00 0.00 0.00 80 1005.7
20260830141217 56 259 27.0 34.0 0.00 0.00 0.00 76 1005.6
20260830135712 57 248 28.0 37.0 0.00 0.00 0.00 75 1005.3
20260830134213 56 251 25.0 34.0 0.00 0.00 0.00 76 1005.4
20260830133416 56 275 24.0 32.0 0.00 0.00 0.00 75 1005.6
20260830131209 57 238 25.0 33.0 0.00 0.00 0.00 72 1005.4
20260830125706 57 246 22.0 33.0 0.00 0.00 0.00 71 1005.3
20260830124200 57 273 21.0 29.0 0.00 0.00 0.00 70 1005.7
20260830123353 57 266 23.0 34.0 0.00 0.00 0.00 71 1005.4
20260830121151 58 229 21.0 39.0 0.00 0.01 0.00 71 1005.3
20260830115653 57 277 21.0 35.0 0.00 0.01 0.01 73 1005.4
20260830114845 57 226 22.0 35.0 0.00 0.01 0.01 74 1005.5
20260830112648 58 254 20.0 31.0 0.00 0.01 0.01 71 1005.8
20260830111148 58 271 16.0 29.0 0.00 0.02 0.01 72 1005.7
20260830105644 57 250 19.0 31.0 0.00 0.02 0.01 73 1005.4
20260830104140 58 219 21.0 27.0 0.00 0.02 0.01 73 1005.4
20260830102641 58 257 22.0 33.0 0.00 0.02 0.01 73 1005.4
20260830101137 58 246 20.0 31.0 0.00 0.02 0.01 72 1005.2
20260830095633 58 238 26.0 35.0 0.00 0.07 0.01 71 1004.8
20260830094126 58 231 23.0 33.0 0.00 0.11 0.01 72 1004.8
20260830092628 58 207 25.0 35.0 0.00 0.13 0.01 72 1004.9
20260830091123 59 253 26.0 32.0 0.00 0.16 0.01 72 1004.9
20260830085619 58 234 23.0 33.0 0.00 0.19 0.01 74 1004.8
20260830084121 58 0 25.0 36.0 0.00 0.21 0.01 74 1004.5
20260830082614 58 249 28.0 36.0 0.00 0.24 0.01 74 1004.5
20260830081115 58 252 25.0 34.0 0.00 0.31 0.01 73 1004.5
20260830075611 58 251 21.0 37.0 0.00 0.35 0.01 73 1004.4
20260830074804 58 251 23.0 38.0 0.00 0.41 0.01 72 1004.4
20260830072609 58 242 23.0 31.0 0.00 0.46 0.01 72 1004.3
20260830071102 58 245 22.0 32.0 0.00 0.54 0.01 72 1004.5
20260830065604 58 232 20.0 32.0 0.00 0.60 0.01 71 1004.7
20260830064059 59 250 21.0 34.0 0.00 0.63 0.01 70 1004.6
20260830062555 59 228 26.0 34.0 0.00 0.66 0.01 68 1004.2
20260830061056 59 242 21.0 30.0 0.00 0.69 0.01 70 1004.0
20260830055552 59 219 24.0 34.0 0.00 0.72 0.01 67 1004.2
20260830054051 59 244 27.0 38.0 0.00 0.76 0.01 69 1003.6
20260830052547 59 267 26.0 41.0 0.00 0.77 0.01 69 1003.3
20260830051048 59 219 33.0 42.0 0.00 0.79 0.01 68 1003.1
20260830050235 59 243 26.0 37.0 0.00 0.80 0.01 71 1003.0
20260830044038 60 233 24.0 40.0 0.00 0.83 0.01 69 1003.0
20260830042535 60 225 28.0 37.0 0.00 0.85 0.01 68 1003.0
20260830041743 61 229 22.0 41.0 0.00 0.86 0.01 66 1003.0
20260830035530 62 229 22.0 35.0 0.00 0.87 0.01 65 1003.1